Track COSMOS 2516 (GLONASS) now! COSMOS 2516 (GLONASS) is classified as:
1 41554U 16032A 23270.03562920 .00000006 00000-0 00000-0 0 9998 2 41554 63.8647 225.2757 0015319 214.1184 145.7595 2.13106309 57042